Location: 22
(39.7117°N, 89.5929°W)
Time: 01:06:28
(UTC-05:00)

A-11 Canister half - Pass Details

Date: 15 June 2023
Orbit: 1524 x 1684 km, 47.3° (Epoch: 29 September)

Event Time Altitude Azimuth Distance (km) Brightness Sun altitude
Rises 02:23:20 0° 297° (WNW) 4,693 11.6 -24.0°
Reaches altitude 10° 02:26:38 10° 290° (WNW) 3,722 11.0 -23.7°
Maximum altitude 02:34:57 37° 227° (SW) 2,263 9.4 -23.1°
Enters shadow 02:36:11 36° 212° (SSW) 2,311 9.4 -23.0°
